Weather History for KMCB - May, 2013

Change the Weather History Date:

Friday, May 3, 2013

  Actual Average Record
Temperature  
Mean Temperature 54 °F -  
Max Temperature 66 °F 78 °F 90 °F (2002)
Min Temperature 41 °F 57 °F 41 °F (2013)
Degree Days  
Heating Degree Days 11    
Growing Degree Days 4 (Base 50)    
Moisture  
Dew Point 54 °F    
Average Humidity 92    
Maximum Humidity 100    
Minimum Humidity 77    
Precipitation  
Precipitation 0.08 in - - ()
Sea Level Pressure  
Sea Level Pressure 29.96 in    
Wind  
Wind Speed 5 mph (NW)    
Max Wind Speed 18 mph    
Max Gust Speed 26 mph    
Visibility 9 miles    
Events Rain    
Averages and records for this station are not official NWS values.
T = Trace of Precipitation, MM = Missing Value Source: NWS Daily Summary

Daily Weather History Graph

Daily Weather History Graph

Search for Another Location

Airport or City:

Trip Planner

Search our weather history database for the weather conditions in past years. The results will help you decide how hot, cold, wet, or windy it might be!

Date:

Astronomy

May. 03, 2013 Rise Set
Actual Time 6:15 AM CDT 7:42 PM CDT
Civil Twilight 5:49 AM CDT 8:08 PM CDT
Nautical Twilight 5:18 AM CDT 8:39 PM CDT
Astronomical Twilight 4:46 AM CDT 9:11 PM CDT
Moon 2:15 AM CDT (5/3) 2:00 PM CDT (5/3)
Length of Visible Light 14h 19m
Length of Day
13h 27m
Last Quarter, 37% of the Moon is Illuminated
May 3
Last Quarter
May 9
New
May 17
First Quarter
May 24
Full
May 31
Last Quarter

Hourly Weather History & Observations

Time (CDT) Temp. Windchill Dew Point Humidity Pressure Visibility Wind Dir Wind Speed Gust Speed Precip Events Conditions
12:53 AM 66.0 °F - 64.0 °F 93% 29.94 in 10.0 mi Calm Calm - N/A   Clear
1:26 AM 64.4 °F - 64.4 °F 100% 29.94 in 10.0 mi Calm Calm - N/A   Mostly Cloudy
1:53 AM 66.0 °F - 64.0 °F 93% 29.92 in 10.0 mi Calm Calm - N/A   Overcast
2:22 AM 64.4 °F - 64.4 °F 100% 29.92 in 9.0 mi Calm Calm - N/A   Overcast
2:44 AM 64.4 °F - 64.4 °F 100% 29.92 in 9.0 mi Calm Calm - N/A   Overcast
2:53 AM 64.9 °F - 64.0 °F 97% 29.91 in 9.0 mi Calm Calm - N/A   Overcast
3:32 AM 66.2 °F - 64.4 °F 94% 29.91 in 10.0 mi Calm Calm - N/A   Overcast
3:53 AM 66.0 °F - 64.0 °F 93% 29.90 in 10.0 mi Calm Calm - N/A   Overcast
4:03 AM 66.2 °F - 64.4 °F 94% 29.91 in 9.0 mi Calm Calm - N/A   Overcast
4:23 AM 66.2 °F - 64.4 °F 94% 29.91 in 9.0 mi Calm Calm - N/A   Overcast
4:53 AM 66.0 °F - 64.0 °F 93% 29.89 in 10.0 mi Calm Calm - N/A   Overcast
5:23 AM 66.2 °F - 64.4 °F 94% 29.91 in 10.0 mi Calm Calm - N/A   Overcast
5:53 AM 66.0 °F - 64.0 °F 93% 29.90 in 10.0 mi Calm Calm - N/A   Overcast
6:35 AM 64.4 °F - 64.4 °F 100% 29.91 in 7.0 mi SSE 5.8 mph - N/A   Overcast
6:53 AM 64.0 °F - 63.0 °F 96% 29.91 in 9.0 mi WNW 11.5 mph - N/A   Overcast
7:02 AM 62.6 °F - 62.6 °F 100% 29.92 in 9.0 mi WNW 12.7 mph 16.1 mph 0.01 in Rain Light Rain
7:53 AM 57.0 °F - 55.9 °F 96% 29.94 in 5.0 mi WNW 8.1 mph 17.3 mph 0.02 in Rain Light Rain
8:53 AM 55.9 °F - 55.0 °F 97% 29.96 in 8.0 mi NW 9.2 mph - 0.01 in Rain Light Rain
9:53 AM 55.0 °F - 53.1 °F 93% 29.96 in 10.0 mi NW 11.5 mph 21.9 mph 0.00 in   Overcast
10:53 AM 54.0 °F - 53.1 °F 97% 29.97 in 3.0 mi NW 10.4 mph - 0.01 in Rain Light Rain
11:24 AM 53.6 °F - 51.8 °F 94% 29.98 in 6.0 mi NNW 16.1 mph 24.2 mph 0.00 in Rain Light Rain
11:53 AM 54.0 °F - 52.0 °F 93% 29.97 in 9.0 mi NNW 11.5 mph - 0.00 in   Overcast
12:16 PM 53.6 °F - 51.8 °F 94% 29.97 in 5.0 mi NNW 11.5 mph - 0.00 in Rain Light Rain
12:27 PM 51.8 °F - 51.8 °F 100% 29.97 in 2.0 mi NW 12.7 mph - 0.03 in Rain Light Rain
12:37 PM 51.8 °F - 50.0 °F 94% 29.98 in 3.0 mi NW 15.0 mph - 0.04 in Rain Light Rain
12:53 PM 52.0 °F - 50.0 °F 93% 29.96 in 10.0 mi NNW 15.0 mph - 0.04 in   Overcast
1:00 PM 51.8 °F - 50.0 °F 94% 29.97 in 10.0 mi NNW 10.4 mph - N/A   Overcast
1:53 PM 53.1 °F - 51.1 °F 93% 29.96 in 10.0 mi NW 15.0 mph - N/A   Overcast
2:27 PM 53.6 °F - 50.0 °F 88% 29.97 in 10.0 mi NW 17.3 mph 23.0 mph N/A   Overcast
2:53 PM 52.0 °F - 50.0 °F 93% 29.96 in 5.0 mi NW 16.1 mph 25.3 mph N/A   Overcast
3:02 PM 51.8 °F - 48.2 °F 88% 29.97 in 5.0 mi NW 16.1 mph 23.0 mph N/A   Overcast
3:30 PM 53.6 °F - 48.2 °F 82% 29.96 in 10.0 mi WNW 15.0 mph 23.0 mph N/A   Overcast
3:53 PM 53.1 °F - 46.9 °F 80% 29.95 in 10.0 mi NNW 16.1 mph - N/A   Overcast
4:53 PM 51.1 °F - 45.0 °F 80% 29.96 in 10.0 mi NNW 13.8 mph - N/A   Overcast
5:53 PM 50.0 °F - 44.1 °F 80% 29.98 in 10.0 mi NNW 18.4 mph 26.5 mph N/A   Overcast
6:53 PM 48.9 °F - 43.0 °F 80% 29.99 in 10.0 mi NNW 15.0 mph 23.0 mph N/A   Overcast
7:53 PM 48.0 °F - 41.0 °F 77% 30.01 in 10.0 mi NNW 15.0 mph 19.6 mph N/A   Overcast
8:23 PM 46.4 °F 41.5 °F 41.0 °F 81% 30.03 in 10.0 mi North 10.4 mph - N/A   Scattered Clouds
8:53 PM 46.9 °F - 41.0 °F 80% 30.03 in 10.0 mi North 5.8 mph - N/A   Clear
9:53 PM 45.0 °F 43.5 °F 42.1 °F 90% 30.04 in 10.0 mi North 3.5 mph - N/A   Clear
10:53 PM 42.1 °F - 41.0 °F 96% 30.04 in 10.0 mi Calm Calm - N/A   Clear
11:53 PM 41.0 °F - 39.9 °F 96% 30.03 in 10.0 mi Calm Calm - N/A   Clear